TimeEST,TemperatureF,Dew PointF,Humidity,Sea Level PressureIn,VisibilityMPH,Wind Direction,Wind SpeedMPH,Gust SpeedMPH,PrecipitationIn,Events,Conditions,WindDirDegrees,DateUTC
12:00 AM,5.0,-0.4,78,30.25,25.0,NE,3.5,-,N/A,,Clear,50,2013-02-11 05:00:00
1:00 AM,6.8,-0.4,72,30.21,25.0,NNE,4.6,-,N/A,,Scattered Clouds,30,2013-02-11 06:00:00
2:00 AM,6.8,-0.4,72,30.18,25.0,Variable,3.5,-,N/A,,Scattered Clouds,0,2013-02-11 07:00:00
3:00 AM,10.4,3.2,73,30.13,25.0,NNE,5.8,-,N/A,,Mostly Cloudy,30,2013-02-11 08:00:00
4:00 AM,12.2,3.2,67,30.09,25.0,NE,3.5,-,N/A,,Overcast,50,2013-02-11 09:00:00
5:00 AM,14.0,1.4,57,30.03,25.0,NE,6.9,-,N/A,,Overcast,50,2013-02-11 10:00:00
6:00 AM,14.0,3.2,62,30.01,25.0,NE,3.5,-,N/A,,Overcast,50,2013-02-11 11:00:00
7:00 AM,14.0,3.2,62,29.96,25.0,NE,8.1,-,N/A,,Overcast,40,2013-02-11 12:00:00
8:00 AM,14.0,3.2,62,29.93,25.0,NE,5.8,-,N/A,,Overcast,40,2013-02-11 13:00:00
9:00 AM,15.8,5.0,62,29.89,20.0,NE,4.6,-,N/A,,Light Small Hail Showers,40,2013-02-11 14:00:00
10:00 AM,19.4,6.8,58,29.85,20.0,NNE,6.9,-,N/A,,Light Small Hail Showers,30,2013-02-11 15:00:00
10:43 AM,19.4,8.6,63,29.85,3.0,NNE,4.6,-,N/A,Snow,Light Snow,30,2013-02-11 15:43:00
10:47 AM,19.4,8.6,63,29.84,1.0,NNE,4.6,-,N/A,Snow,Light Snow,30,2013-02-11 15:47:00
11:00 AM,17.6,12.2,79,29.83,0.8,NE,5.8,-,N/A,Snow,Light Snow,40,2013-02-11 16:00:00
11:36 AM,19.4,15.8,86,29.80,1.5,NE,5.8,-,N/A,Snow,Light Snow,40,2013-02-11 16:36:00
12:00 PM,19.4,15.8,86,29.78,4.0,NE,6.9,-,N/A,Snow,Light Snow,40,2013-02-11 17:00:00
12:40 PM,19.4,17.6,93,29.74,4.0,NE,6.9,-,N/A,Snow,Light Snow,50,2013-02-11 17:40:00
1:00 PM,19.4,17.6,93,29.73,4.0,NE,6.9,-,N/A,Snow,Light Snow,40,2013-02-11 18:00:00
1:39 PM,21.2,19.4,93,29.70,2.0,NNE,6.9,-,N/A,Snow,Light Freezing Drizzle,30,2013-02-11 18:39:00
2:00 PM,21.2,19.4,93,29.70,1.5,NE,6.9,-,N/A,Snow,Light Freezing Drizzle,40,2013-02-11 19:00:00
3:00 PM,23.0,21.2,93,29.66,2.0,NE,6.9,-,N/A,Snow,Light Freezing Drizzle,50,2013-02-11 20:00:00
3:05 PM,23.0,21.2,93,29.66,2.0,NNE,6.9,-,N/A,Rain,Light Freezing Rain,30,2013-02-11 20:05:00
4:00 PM,23.0,23.0,100,29.64,2.0,NE,6.9,-,N/A,Rain,Light Freezing Rain,50,2013-02-11 21:00:00
6:00 PM,24.8,23.0,93,29.60,5.0,NNE,4.6,-,N/A,Rain,Light Freezing Rain,20,2013-02-11 23:00:00
7:00 PM,24.8,23.0,93,29.60,5.0,ENE,5.8,-,N/A,Rain,Light Freezing Rain,60,2013-02-12 00:00:00
8:00 PM,24.8,24.8,100,29.57,4.0,NNE,2.3,-,N/A,,Overcast,30,2013-02-12 01:00:00
9:00 PM,24.8,23.0,93,29.55,4.0,NE,3.5,-,N/A,,Overcast,50,2013-02-12 02:00:00
9:46 PM,24.8,24.8,100,29.54,2.0,Calm,Calm,-,N/A,Snow,Light Snow,0,2013-02-12 02:46:00
10:00 PM,24.8,24.8,100,29.54,1.0,Variable,2.3,-,N/A,Snow,Light Snow,0,2013-02-12 03:00:00
10:40 PM,32.0,32.0,100,29.55,4.0,WSW,13.8,21.9,N/A,Rain,Light Rain,240,2013-02-12 03:40:00
11:00 PM,32.0,32.0,100,29.55,2.0,WSW,12.7,21.9,N/A,Rain,Light Rain,240,2013-02-12 04:00:00